Notices

What's New in latest Release from April 7th, 2021:

- Updated Glossary, including Speed of Maximum Gust, and Total Hourly Precipitation

- Updated national and regional climate services offices contacts and prices information

- Addition of station inventory lists for 1981-2010, 1971-2000, and 1961-1990 Normals.

If you haven't already, please take our survey and provide feedback about our website: https://eccc.sondage-survey.ca/f/LanguageSelection.aspx?s=442ca660-fcf1-47c0-95a9-59707d6fd709

Hourly Data Report for March 02, 2017

TORONTO CITY
ONTARIO

43°40'00.000" N
79°24'00.000" W
112.50 m
6158355
71508
XTO

Download Data

Hourly Data (March 2017)
Hourly Data Report for March 2, 2017
TIME
LST
Temp Definition
°C
Dew Point Definition
°C
Rel Hum Definition
%
Precip. Amount Definition
mm

Wind Dir Definition
10's deg

Wind Spd Definition
km/h
Visibility Definition
km
Stn Press Definition
kPa
Hmdx Definition


Wind Chill Definition


Weather Definition


00:00 -0.1 -5.9 65 0.0 LegendMM LegendMM   98.44     LegendNANA
01:00 -1.8 -9.1 57 0.0 LegendMM LegendMM   98.64     LegendNANA
02:00 -4.7 -12.7 53 0.0 LegendMM LegendMM   98.88     LegendNANA
03:00 -5.7 -13.0 56 0.2 LegendMM LegendMM   99.03     LegendNANA
04:00 -5.8 -11.1 66 0.0 LegendMM LegendMM   99.25     LegendNANA
05:00 -6.1 -11.8 64 0.0 LegendMM LegendMM   99.45     LegendNANA
06:00 -6.3 -12.2 63 0.0 LegendMM LegendMM   99.62     LegendNANA
07:00 -5.9 -11.8 63 0.0 LegendMM LegendMM   99.77     LegendNANA
08:00 -5.9 -11.4 65 0.0 LegendMM LegendMM   99.92     LegendNANA
09:00 -5.5 -11.9 61 0.0 LegendMM LegendMM   100.08     LegendNANA
10:00 -4.8 -12.5 55 0.0 LegendMM LegendMM   100.17     LegendNANA
11:00 -3.9 -12.2 53 0.0 LegendMM LegendMM   100.26     LegendNANA
12:00 -1.7 -11.4 48 0.0 LegendMM LegendMM   100.31     LegendNANA
13:00 -2.7 -12.9 45 0.0 LegendMM LegendMM   100.33     LegendNANA
14:00 -2.3 -14.4 39 0.0 LegendMM LegendMM   100.36     LegendNANA
15:00 -1.7 -12.7 43 0.0 LegendMM LegendMM   100.39     LegendNANA
16:00 -2.0 -13.0 43 0.0 LegendMM LegendMM   100.44     LegendNANA
17:00 -2.2 -12.7 44 0.0 LegendMM LegendMM   100.50     LegendNANA
18:00 -2.8 -12.5 47 0.0 LegendMM LegendMM   100.61     LegendNANA
19:00 -3.5 -12.0 52 0.0 LegendMM LegendMM   100.73     LegendNANA
20:00 -4.5 -13.9 48 0.0 LegendMM LegendMM   100.80     LegendNANA
21:00 -5.3 -12.3 58 0.0 LegendMM LegendMM   100.88     LegendNANA
22:00 -5.4 -11.6 61 0.0 LegendMM LegendMM   100.89     LegendNANA
23:00 -5.4 -11.7 61 0.0 LegendMM LegendMM   100.88     LegendNANA

Notes on Data Quality.

Legend

  • E = Estimated
  • M = Missing
  • NA = Not Available*
  • [empty] = Indicates an unobserved value
Date modified: